Starlink 6075

operational
NORAD ID: 56102 Int'l Des: 2023-046 Owner: SPXS Country: US Constellation: starlink
LEOCIRCULAR

Über Starlink 6075

Beschreibung wird geladen...

Live-Position

3D-Globus wird geladen...

Nächste Überflüge

Höhenverlauf

Altitude vs Time

uPlot chart will show altitude changes over time

Zweizeiliger Elementsatz

1 56102U 23046K 25351.40054833 .00000065 00000-0 19903-4 0 9999
2 56102 43.0022 246.0824 0001115 272.8621 87.2094 15.02535558149686
Epoch: 17. Dez. 2025 • Age: 13 hours

Aktueller Status

Höhe 561.3 km
Geschwindigkeit 7.59 km/s
Subsatellitenpunkt 35.61°N, 133.41°W
Startdatum 29. März 2023
Alter 2.7 years
Typ internet

Technische Details

Klassifizierung Payload
Masse 305.00 kg
Trockenmasse 290.00 kg
Gesamtmasse 305.00 kg
Länge 0.20 m
Durchmesser 2.80 m
Spannweite 9.00 m
Form Box + pan
Hersteller SPXS
Bus-Typ Starlink
Phasenstatus In Orbit
Besitzer/Staat SPXS/US

Große Konstellationen

Loading constellations...